India Forums Logo

Pyaar Kii Ye Ek Kahaani

India Forums > Forum Index > Pyaar Kii Ye Ek Kahaani
Pyaar Kii Ye Ek Kahaani is a contemporary, visual, and visceral Romeo and Juliet story of the ultimate forbidden love affair - between a non human and a mortal - Dangerous Love!
...
<< | 304 | 305 | 306 | 307 | 308 | 309 | 310 | 311 | 312 | 313 | 314 | 315 | 316 | 317 | 318 | 319 | 320 | 321 | 322 | ... >>
TIDTopic SubjectStart DateLast Entry
3776943os- He Was Only A Dream PART 210/17/2013 1:18:06 AM11/20/2013 8:30:03 AM
3777254Har ek dost Zaruri hota hai...10/17/2013 6:38:21 AM10/27/2013 4:08:10 AM
3777896PARTY - HAPPY BIRTHDAY PKYEK 3 YRS OLD10/17/2013 2:23:22 PM11/12/2013 10:13:57 AM
3778029kishwer's tweet :D10/17/2013 8:46:39 PM10/20/2013 10:19:45 PM
3778099Os for abhiya anivesary as poem- light vs darkness10/17/2013 11:01:12 PM10/20/2013 10:47:55 PM
3778105from jungle to our hearts !10/17/2013 11:08:38 PM10/27/2013 4:13:34 AM
3778120Aninversary poem- do u remeber?10/17/2013 11:35:06 PM10/27/2013 3:09:20 AM
3779920Happy Birthday singhshailesh86(shailesh)10/19/2013 10:46:01 AM10/22/2013 9:28:59 AM
3780038~~Shower Your Wishes~~10/19/2013 12:22:28 PM10/26/2013 7:01:50 AM
3780337Sukirti at Women Achievement Awards, New Delhi10/20/2013 12:43:14 AM10/26/2013 10:05:45 PM
3780519One question!!...10/20/2013 6:04:08 AM10/27/2013 3:08:01 AM
3780684PKYEK2 -Destroyed For Love - Episode 4210/20/2013 9:18:19 AM10/26/2013 7:23:19 AM
3780804removed.10/20/2013 11:25:32 AM2/11/2014 3:30:10 AM
3780824OS - MY LOVE STORY10/20/2013 11:52:54 AM11/27/2013 12:19:43 PM
3781271which one?10/21/2013 3:35:32 AM10/22/2013 8:33:42 AM
3781346New Pics form Telly Calendar Event : Sexy Sukirti10/21/2013 4:34:45 AM10/27/2013 2:55:28 AM
378152419 Outstanding Women honoured by AadhiAabadi Women Achiever award10/21/2013 7:09:11 AM10/24/2013 4:26:42 PM
3781573Sukirti in Women Achievers Hall of Fame :D10/21/2013 7:31:38 AM10/28/2013 4:09:52 AM
3781649Jodi ho toh aise :v :v10/21/2013 8:22:57 AM10/27/2013 3:00:43 AM
3781698Abhiya#172 ||Nothing's Real But Your Love||10/21/2013 8:59:46 AM11/1/2013 1:09:32 PM
3783239HAPPY BIRTHDAY FLORA(NAFISA)10/22/2013 11:22:41 AM10/26/2013 3:41:47 AM
3783729Res.10/23/2013 12:41:10 AM10/23/2013 12:41:10 AM
3786470video: (suku)Aadhi aabadi women achivers award10/24/2013 11:03:27 PM10/25/2013 8:23:12 AM
3786746ABHIYA FF " Uljhan10/25/2013 4:05:46 AM3/20/2014 7:03:53 AM
3786851IF article new- SUKIRTI KANDPAL !!10/25/2013 5:56:12 AM10/26/2013 10:12:07 PM
3787522RP 81:Never Trust Heart Tobe Yur Bez Its Always Beat For Yur Otherhalf10/25/2013 1:16:07 PM11/11/2013 11:38:57 PM
3788155FF: Fate CH 15, 16, epilogue PG 20 *7 DEC*10/26/2013 6:52:06 AM2/6/2015 12:52:49 AM
3788164****OMG VIVI SMOKE.... COOL...****10/26/2013 6:58:03 AM2/6/2014 9:41:43 AM
3788212sexy sukirti as ... piya !!!10/26/2013 7:49:23 AM10/27/2013 3:49:38 AM
3788417New TS-: Tryst With Destiny :)10/26/2013 10:52:59 AM12/7/2013 11:01:17 PM
3788831PKYEK2 -Destroyed For Love - Episode 4310/26/2013 10:06:14 PM11/3/2013 2:24:39 AM
3789243Vivian on comedy ngts wid kapil :P10/27/2013 6:41:19 AM10/28/2013 2:09:22 PM
3790058AbhiYa Vm New....Check it Out10/28/2013 2:33:25 AM11/1/2013 10:47:00 PM
3790073Humble request to Mandy on "The Covenant"10/28/2013 2:47:42 AM11/4/2013 1:24:53 AM
3790291Question of the day :P10/28/2013 6:14:25 AM6/11/2014 7:30:12 AM
3790297To all my FF readers - NOTE on Pg 410/28/2013 6:19:16 AM12/2/2013 9:34:42 AM
3790714Pre-party for Marinating Films & celebs Masti, video SUKIRTI !!!!10/28/2013 10:26:29 AM10/28/2013 3:33:42 PM
3790717stunning sukirti, pic ;):)10/28/2013 10:26:54 AM10/28/2013 2:18:36 PM
3791634lovelly piya !!!!!10/29/2013 4:36:13 AM12/19/2013 10:59:07 AM
3791645Pyaar Kii Ye Ek Kahaani.. unique story!!!10/29/2013 4:44:58 AM10/29/2013 1:35:41 PM
3791671Abhay close 2 Heart..<310/29/2013 4:56:44 AM10/30/2013 12:54:19 PM
3792380ABHIYA SS -SPARKS OF LIFE10/29/2013 11:19:32 AM12/22/2013 1:56:05 AM
3792891Moments of Abhiya's Love..<310/29/2013 9:54:56 PM10/31/2013 7:23:36 AM
3792893Request Like my page10/29/2013 10:00:58 PM10/31/2013 7:22:30 AM
3793347congratulation Ayushi (withered) IF Dazzler10/30/2013 5:31:47 AM11/14/2013 4:02:47 AM
3793439Zing Magazine - May 2013 Issue- SUKIRTI article ;)10/30/2013 6:49:51 AM11/8/2013 2:06:19 PM
3793542piya and... ?!10/30/2013 7:58:22 AM12/21/2013 7:48:01 PM
3794698Happy HOLLOWEEN all Pkyekians10/31/2013 3:09:12 AM11/2/2013 3:22:21 AM
3794770breaking news:pkyek 2 to come with vivian and vahbiz in lead10/31/2013 4:09:42 AM12/19/2013 12:38:23 PM
3794773****HAPPY HALLOWEEN****10/31/2013 4:13:44 AM11/2/2013 1:40:59 PM
3795667~*~Time to Celebrate Sukirti Kandpal's Birthday~*~10/31/2013 1:24:48 PM11/19/2013 10:38:59 PM
3796819AbhIYa#173 ||You'r My Missing Puzzle Pcs & Nw I Feel So Complete&l11/1/2013 11:09:51 AM11/7/2013 2:44:49 AM
3797220A Request to All Readers of the Forum11/1/2013 9:39:03 PM11/3/2013 10:32:48 PM
3797408PKYEK - Destroyed For Love.. Epi 4411/2/2013 2:03:23 AM11/7/2013 9:15:35 AM
3797682HAPPY DEWALI..<311/2/2013 7:27:17 AM11/3/2013 8:09:56 AM
3799393Diwali blast11/4/2013 6:32:39 AM11/6/2013 5:51:59 AM
3799849removed.11/4/2013 11:38:04 AM2/9/2014 9:52:22 AM
3799975Fanfiction Help11/4/2013 2:32:47 PM11/6/2013 2:13:47 AM
3801052Abhiya OS- Your Highness!!!11/5/2013 1:25:27 PM11/6/2013 8:37:58 AM
3801090Enigmatic AbhIya AT#174 ||Baby We Are FIRE and ICE ||11/5/2013 2:33:20 PM11/9/2013 10:30:55 PM
3801126Abhay , T and Panchi on Girlfriend remix _Requested11/5/2013 4:13:48 PM11/7/2013 1:08:02 PM
3801622Vivian, Vahbeez, Suyyash at Rithvik's Bday party!11/6/2013 5:14:18 AM11/6/2013 9:20:21 PM
3801670Yaha sab filmy hai11/6/2013 6:08:09 AM11/24/2013 8:11:12 PM
3801689supporting character11/6/2013 6:20:53 AM11/30/2013 8:42:14 PM
3802118PKYEK - Destroyed For Love - New Promo11/6/2013 10:33:01 AM11/9/2013 2:32:29 AM
3802178sukku new pics in white dress11/6/2013 11:15:30 AM11/8/2013 4:13:07 PM
3803671not relevant11/7/2013 2:08:32 PM12/19/2013 9:19:31 AM
3803706Sukirti in The Bachelorette India !!! more pics added ;):)11/7/2013 3:46:13 PM12/19/2013 9:11:13 AM
3804050woawww sukuuuu ... stunning !!!!11/8/2013 1:01:48 AM12/19/2013 9:08:13 AM
3804096HAPPY BIRTHDAY DISHU AKA BOURNVILLE11/8/2013 2:00:38 AM11/13/2013 9:23:55 AM
3804273Abhiya FF " Made for Each Other11/8/2013 5:37:42 AM1/18/2014 11:15:39 PM
3804288Remember this scene11/8/2013 5:59:16 AM11/25/2013 11:29:58 AM
3804504"ALS is the worst reporter I have come across" Pavi(FT)11/8/2013 8:25:04 AM11/19/2013 5:59:09 AM
3804950pkyek group but who is missing11/8/2013 1:33:03 PM11/23/2013 11:08:34 AM
3805746OS: HOPE11/9/2013 7:49:39 AM3/12/2014 8:55:15 PM
<< | 304 | 305 | 306 | 307 | 308 | 309 | 310 | 311 | 312 | 313 | 314 | 315 | 316 | 317 | 318 | 319 | 320 | 321 | 322 | ... >>